Location: ????
(30.1475°N, 31.1342°E)
Time: 07:48:10
(UTC+00:00)

CZ-2D R/B - Pass Details

Date: 27 September 2022
Orbit: 551 x 632 km, 98.0° (Epoch: 28 November)

Event Time Altitude Azimuth Distance (km) Brightness Sun altitude
Rises 02:05:48 0° 8° (N) 2,727 7.1 -22.5°
Reaches altitude 10° 02:07:56 10° 5° (N) 1,833 6.2 -22.0°
Enters shadow 02:11:45 64° 293° (WNW) 619 3.2 -21.2°
